Regional Weather Roundup
Issued by NWS

Home | Current Version | Previous Version | Graphics & Text | Print | Product List | Glossary On
Versions: 1 2 3 4 5 6 7 8 9 10 11 12 13 14 15 16 17 18 19 20 21 22 23 24 25 26 27 28 29 30 31 32 33 34 35 36 37 38 39 40 41 42 43 44 45 46 47 48 49 50
000
ASUS43 KLOT 230800
RWRIL

ILLINOIS REGIONAL WEATHER ROUNDUP
NATIONAL WEATHER SERVICE CHICAGO/ROMEOVILLE IL
300 AM CDT SAT MAY 23 2015

NOTE: "FAIR" INDICATES FEW OR NO CLOUDS BELOW 12,000 FEET WITH NO
SIGNIFICANT WEATHER AND/OR OBSTRUCTIONS TO VISIBILITY.

* THESE STATIONS ARE NOT UNDER NWS QUALITY CONTROL. THEY ALSO MAY NOT
  REPORT WEATHER SUCH AS PRECIPITATION OR FOG.

ILZ001-002-007-009-015-016-024-230900-
NORTHWEST ILLINOIS

CITY           SKY/WX    TMP DP  RH WIND       PRES   REMARKS
MOLINE         MOCLDY    54  44  69 E7        30.23S
STERLING*      MOCLDY    55  37  50 E6        30.27R
$$

ILZ003-004-008-010-011-017-018-230900-
NORTH CENTRAL ILLINOIS

CITY           SKY/WX    TMP DP  RH WIND       PRES   REMARKS
ROCKFORD       MOCLDY    50  34  54 SE3       30.31R
FREEPORT*        N/A     47  36  64 E5        30.29S
$$

ILZ005-006-012>014-019>023-230900-
NORTHEAST ILLINOIS

CITY           SKY/WX    TMP DP  RH WIND       PRES   REMARKS
CHICAGO-OHARE  MOCLDY    51  34  52 SE5       30.29R
CHICAGO-MIDWAY MOCLDY    55  39  54 SE5       30.29S
AURORA         MOCLDY    49  36  61 E3        30.29S
WAUKEGAN       PTCLDY    43  36  76 SW3       30.29R
DUPAGE AIRPORT PTCLDY    47  34  60 CALM      30.29R
WHEELING       PTCLDY    46  38  73 CALM      30.31S
NORTHERLY ISL    N/A     52  42  69 CALM        N/A
$$

LMZ740>746-230900-
SOUTHERN LAKE MICHIGAN

STATION/POSITION SKY/WX   TEMP    WIND        PRES    VSBY  WAVE
                          AIR SEA DIR/SP/G                  HT/PER
                          (F)     (DEG/KT/KT) (MB)    (MI)  (FT/S)
SOUTHERN BUOY              44 38  190/  6/  6 1026.7R         0
HARRISON CRIB              54     170/  9/ 10   N/A
BURNHAM HARBOR             53     160/  1/  2   N/A
CALUMET HARBOR             57     110/  4/  8   N/A
BURNS HARBOR               61     120/ 11/ 17 1026.1S
MICHIGAN CITY              54     120/  9/ 10   N/A
MICHIGAN CITY 6N           54 52  150/  4/  6   N/A           1/ 3
ST. JOSEPH                 56 53  160/  8/  8   N/A           1
$$

ILZ025>027-034>036-040-047-049-050-058-095>099-230900-
WEST-CENTRAL ILLINOIS

CITY           SKY/WX    TMP DP  RH WIND       PRES   REMARKS
QUINCY         CLOUDY    58  53  84 CALM      30.25R
$$

ILZ028>032-037-038-041>044-048-051>054-059>061-230900-
CENTRAL ILLINOIS

CITY           SKY/WX    TMP DP  RH WIND       PRES   REMARKS
DECATUR        CLOUDY    61  53  75 S3        30.25R
PEORIA         PTCLDY    61  46  57 CALM      30.25S
SPRINGFIELD    CLOUDY    60  54  80 CALM      30.25R
TAYLORVILLE    NOT AVBL
$$

ILZ033-039-045-046-055>057-062-063-230900-
EAST-CENTRAL ILLINOIS

CITY           SKY/WX    TMP DP  RH WIND       PRES   REMARKS
CHAMPAIGN      CLOUDY    60  43  53 E6        30.25F
MATTOON        CLOUDY    60  51  72 CALM      30.25R
$$

ILZ079-100>102-230900-
SOUTHWEST ILLINOIS

CITY           SKY/WX    TMP DP  RH WIND       PRES   REMARKS
BELLEVILLE     MOCLDY    62  57  86 CALM      30.25S
CAHOKIA*       CLOUDY    62  56  80 CALM      30.25S
SPARTA*        CLOUDY    61  56  84 CALM      30.27S
$$

ILZ064>066-069>071-074>076-080>082-084>086-088>090-092>094-230900-
SOUTH-CENTRAL ILLINOIS

CITY           SKY/WX    TMP DP  RH WIND       PRES   REMARKS
CARBONDALE     CLOUDY    57  55  93 CALM      30.27R
MT. VERNON     CLOUDY    55  52  88 CALM      30.28S
SALEM*         CLOUDY    61  55  79 CALM      30.27S
$$

ILZ067-068-072-073-078-083-087-091-230900-
SOUTHEAST ILLINOIS

CITY           SKY/WX    TMP DP  RH WIND       PRES   REMARKS
LAWRENCEVILLE  CLOUDY    60  54  80 CALM      30.28S
HARRISBURG*    CLOUDY    57  57 100 CALM      30.28S
ROBINSON*      CLOUDY    58  54  88 CALM      30.28F
$$

ABBREVIATIONS USED IN REMARKS
   TC - TEMPERATURE IN CELSIUS
  WCI - WIND CHILL INDEX
   HX - HEAT INDEX
  VSB - VISIBILITY
$$



USA.gov is the U.S. government's official web portal to all federal, state and local government web resources and services.